Preview of NWS' New Version of Forecast
This preview is not operational and should not be used for support decisions.

Regional Weather Roundup (RWR)

Issued by National Weather Service (NWS)

                            
000
ASUS45 KBOU 202210
RWRCO 

WEATHER ROUNDUP FOR COLORADO
NATIONAL WEATHER SERVICE DENVER/BOULDER CO
300 PM MST WED FEB 20 2019

NOTE: "FAIR" INDICATES FEW OR NO CLOUDS BELOW 12000 FEET WITH NO
SIGNIFICANT WEATHER AND/OR OBSTRUCTIONS TO VISIBILITY.

COZ001>005-013-030-031-202300-
...NORTHWEST COLORADO...
  
CITY           SKY/WX    TMP DP  RH WIND       PRES   REMARKS
CRAIG          PTSUNNY   21   8  57 SW15      29.66S WCI   8          
HAYDEN         PTSUNNY   16   7  67 SE6       29.67R WCI   7          
MEEKER         CLOUDY    24   5  44 SW14      29.65F WCI  12          
RANGELY        MOCLDY    24  13  63 CALM      29.70S                  
RABBIT EARS PA LGT SNOW N/A N/A N/A W9G22     29.47R                  
STEAMBOAT SPGS CLOUDY    18   5  57 CALM      29.64S                  
WALDEN         PTSUNNY   14   1  57 SW17G23   29.55S WCI  -3          
$$

COZ006>008-011-202300-
...WEST CENTRAL VALLEYS...
  
CITY           SKY/WX    TMP DP  RH WIND       PRES   REMARKS
GRAND JUNCTION CLOUDY    27  16  63 NW13      29.74F WCI  16          
MONTROSE       CLOUDY    27   8  44 N7        29.72F WCI  19          
EAGLE          CLOUDY    24   7  48 W16       29.67S WCI  11          
RIFLE          CLOUDY    25   8  48 SE3       29.71F                  
DELTA          CLOUDY    32   7  35 CALM      29.74F                  
NUCLA          CLOUDY    27  18  69 SW7       29.76S WCI  19          
$$

COZ017>023-064>068-202300-
...SOUTHWEST COLORADO...
  
CITY           SKY/WX    TMP DP  RH WIND       PRES   REMARKS
DURANGO        FLURRIES  20  13  74 NE8       29.76F WCI  10          
CORTEZ         CLOUDY    26  13  57 S9        29.75F WCI  17          
PAGOSA SPRINGS CLOUDY    19   8  61 NE5       29.74F WCI  13          
TELLURIDE      CLOUDY    19   7  58 CALM      29.62S                  
WOLF CREEK PAS CLOUDY     0  -4  85 S20G29    29.58F WCI -22          
$$

COZ009-010-012-014-032>034-037-058>063-202300-
...CENTRAL COLORADO...
  
CITY           SKY/WX    TMP DP  RH WIND       PRES   REMARKS
ASPEN          FAIR      21   0  39 N6        29.59F WCI  13          
BUENA VISTA    PTSUNNY   23   0  36 SW12      29.58R WCI  12          
COPPER MTN     CLOUDY     5  -4  66 MISG      29.45R HAZE             
BERTHOUD PASS  CLOUDY    -4 -13  65 NW23      29.37R WCI -29          
COTTONWOOD PAS CLOUDY    16  -2  45 W13G23    29.51S WCI   2          
GUNNISON       PTSUNNY   16   1  51 CALM      29.67S                  
GRANBY         FAIR      17   0  47 W16G23    29.58R WCI   1          
KREMMLING      CLOUDY    23   3  42 SW13G18   29.61S WCI  11          
LEADVILLE      PTSUNNY   12  -3  51 NW14      29.49S WCI  -3          
MONARCH PASS   CLOUDY     1  -4  78 SW26G40   29.58S WCI -23          
SALIDA         FAIR      26   2  36 S22G28    29.68S WCI  12          
SUNLIGHT       LGT SNOW   9   3  78 SW9       29.56R VSB 1   WCI  -5  
WILKERSON PASS FAIR      12  -2  52 SW14G25   29.47R WCI  -3          
$$

COZ069>075-202300-
...SAN LUIS VALLEY/SANGRE DE CRISTO MOUNTAINS...
  
CITY           SKY/WX    TMP DP  RH WIND       PRES   REMARKS
ALAMOSA        FAIR      21   7  54 SW14      29.66S WCI   8          
DEL NORTE      FAIR      18   0  45 E5        29.67S WCI  11          
LA VETA PASS   NOT AVBL                                               
SAGUACHE       CLOUDY    19   1  45 CALM      29.67F                  
$$

COZ035-036-038>040-202300-
...NORTHERN COLORADO FRONT RANGE...
  
CITY           SKY/WX    TMP DP  RH WIND       PRES   REMARKS
DENVER INTL AP FAIR      34   0  23 S8        29.57R WCI  27          
AURORA         MOSUNNY   34  -1  22 S13       29.57R WCI  25          
FRONT RANGE AP MOSUNNY   36   0  21 S8        29.58S                  
ERIE MUNI ARPT FAIR      37  -4  17 W29G38    29.61S                  
BOULDER MUN AP FAIR      36  -2  20 W18G29    29.56R                  
CENTENNIAL     FAIR      31   2  29 E12G20    29.56R WCI  22          
BROOMFIELD     MOSUNNY   36  -4  18 E5G10     29.54S                  
FORT COLLINS   FAIR      36  -4  18 S9        29.57R                  
LONGMONT       FAIR      40  -6  14 W17G25    29.58R                  
$$

COZ041-046-047-076>085-087-088-202300-
...PIKES PEAK/PALMER DIVIDE AND SOUTHERN FOOTHILLS...
  
CITY           SKY/WX    TMP DP  RH WIND       PRES   REMARKS
COLO. SPRINGS  FAIR      33   9  36 S6        29.57S WCI  28          
A. F. ACADEMY  FAIR      28   3  34 S8        29.55S WCI  20          
SCHRIEVER AFB  NOT AVBL                                               
CHEYENNE MTN   FAIR      24  10  53 NW9       29.50S WCI  15          
ELLICOTT         N/A    N/A N/A N/A S14       29.58S                  
FALCON         FAIR      30  11  45 SE17      29.57S WCI  18          
FORT CARSON    FAIR      37   3  23 W18G28    29.54F                  
LIMON          FAIR      29   3  33 SW6       29.63S WCI  23          
MONUMENT HILL  FAIR      25   9  50 SE15      29.55S WCI  12          
CANON CITY     FAIR      41   5  22 W17G23    29.59S                  
WALSENBURG     NOT AVBL                                               
TRINIDAD       FAIR      39   8  27 NE13G18   29.60F                  
$$

COZ042>045-048>051-090-091-202300-
...NORTHEAST COLORADO...
  
CITY           SKY/WX    TMP DP  RH WIND       PRES   REMARKS
GREELEY ARPT   FAIR      37  -6  16 VRB3      29.60                   
AKRON          FAIR      34   3  27 W10G21    29.62  WCI  26          
BURLINGTON     FAIR      32  11  41 W6        29.69R WCI  26          
WRAY           FAIR      37  12  35 W7        29.67R                  
YUMA           FAIR      34  10  37 NW13      29.65R WCI  25          
STERLING       FAIR      37   3  23 NW18G26   29.61R                  
HOLYOKE        FAIR      41  14  33 NW9G16    29.64S                  
FORT MORGAN      N/A     36  -8  15 S8        29.62R                  
$$

COZ086-089-092>099-202300-
...SOUTHEAST COLORADO...
  
CITY           SKY/WX    TMP DP  RH WIND       PRES   REMARKS
PUEBLO         FAIR      40   7  25 S13G18    29.62F                  
LA JUNTA       FAIR      39  11  31 E6        29.67S                  
LAMAR          FAIR      37  18  46 NE8       29.71S                  
SPRINGFIELD      N/A     38   5  25 SW12      29.69F                  
$$